When you browse on this site, cookies collect data to enhance your experience and personalize the content and advertising you see.
Visit our Privacy Policy to learn more. By continuing to use the site, you agree to this use of cookies and data.
  • en Suisse
  • Liste des pays
  • À 7 jours
  • Température de l'eau
  • Carte satellitaire
  • Carte météo
  • Widgets météo
  • user-avatar
    Se connecter

    Météo par heure à Bautzen

    Ce jour, 20 Juillet, Samedi

    Heure Température Précipitation Vent Pression Humidité
    00:00 +17°C° 0 mm 2 m/s 744 mmHg 87%
    01:00 +18°C° 0 mm 1 m/s 744 mmHg 89%
    02:00 +16°C° 0 mm 1 m/s 744 mmHg 90%
    03:00 +16°C° 0 mm 1 m/s 744 mmHg 91%
    04:00 +16°C° 0 mm 1 m/s 744 mmHg 92%
    05:00 +18°C° 0 mm 1 m/s 744 mmHg 87%
    06:00 +20°C° 0 mm 1 m/s 744 mmHg 82%
    07:00 +21°C° 0 mm 1 m/s 744 mmHg 76%
    08:00 +23°C° 0 mm 1 m/s 744 mmHg 69%
    09:00 +24°C° 0 mm 2 m/s 744 mmHg 63%
    10:00 +26°C° 0 mm 2 m/s 744 mmHg 57%
    11:00 +27°C° 0 mm 2 m/s 744 mmHg 53%
    12:00 +28°C° 0 mm 2 m/s 744 mmHg 50%
    13:00 +29°C° 0 mm 2 m/s 744 mmHg 47%
    14:00 +29°C° 0 mm 2 m/s 743 mmHg 47%
    15:00 +30°C° 0 mm 2 m/s 743 mmHg 47%
    16:00 +30°C° 0 mm 2 m/s 743 mmHg 47%
    17:00 +29°C° 0 mm 2 m/s 743 mmHg 54%
    18:00 +28°C° 0 mm 2 m/s 743 mmHg 60%
    19:00 +27°C° 0 mm 2 m/s 742 mmHg 66%
    20:00 +25°C° 0.6 mm 2 m/s 742 mmHg 71%
    21:00 +24°C° 0.6 mm 3 m/s 743 mmHg 76%
    22:00 +21°C° 0.6 mm 3 m/s 743 mmHg 80%
    23:00 +21°C° 0.3 mm 3 m/s 743 mmHg 82%

    Demain, 21 Juillet, Dimanche

    Heure Température Précipitation Vent Pression Humidité
    00:00 +21°C° 0.3 mm 3 m/s 743 mmHg 83%
    01:00 +20°C° 0.3 mm 3 m/s 743 mmHg 84%
    02:00 +20°C° 0.1 mm 3 m/s 743 mmHg 86%
    03:00 +20°C° 0.1 mm 3 m/s 743 mmHg 88%
    04:00 +19°C° 0.1 mm 3 m/s 743 mmHg 90%
    05:00 +20°C° 0 mm 3 m/s 744 mmHg 87%
    06:00 +21°C° 0 mm 3 m/s 744 mmHg 84%
    07:00 +22°C° 0 mm 3 m/s 744 mmHg 81%
    08:00 +22°C° 0.4 mm 3 m/s 745 mmHg 77%
    09:00 +23°C° 0.4 mm 4 m/s 745 mmHg 74%
    10:00 +25°C° 0.4 mm 4 m/s 746 mmHg 70%
    11:00 +26°C° 0.3 mm 5 m/s 746 mmHg 65%
    12:00 +26°C° 0.3 mm 5 m/s 746 mmHg 59%
    13:00 +27°C° 0.3 mm 5 m/s 746 mmHg 54%
    14:00 +27°C° 0 mm 5 m/s 746 mmHg 52%
    15:00 +27°C° 0 mm 5 m/s 746 mmHg 50%
    16:00 +27°C° 0 mm 5 m/s 746 mmHg 48%
    17:00 +26°C° 0.1 mm 5 m/s 747 mmHg 55%
    18:00 +23°C° 0.1 mm 4 m/s 747 mmHg 62%
    19:00 +22°C° 0.1 mm 3 m/s 747 mmHg 69%
    20:00 +21°C° 0 mm 3 m/s 747 mmHg 73%
    21:00 +19°C° 0 mm 2 m/s 748 mmHg 76%
    22:00 +18°C° 0 mm 2 m/s 749 mmHg 80%
    23:00 +17°C° 0 mm 2 m/s 749 mmHg 83%

    Après-demain, 22 Juillet, Lundi

    Heure Température Précipitation Vent Pression Humidité
    00:00 +17°C° 0 mm 2 m/s 749 mmHg 85%
    01:00 +16°C° 0 mm 2 m/s 749 mmHg 88%
    02:00 +16°C° 0 mm 2 m/s 749 mmHg 89%
    03:00 +15°C° 0 mm 2 m/s 750 mmHg 90%
    04:00 +15°C° 0 mm 2 m/s 750 mmHg 91%
    05:00 +16°C° 0 mm 2 m/s 750 mmHg 88%
    06:00 +17°C° 0 mm 2 m/s 750 mmHg 84%
    07:00 +18°C° 0 mm 2 m/s 750 mmHg 80%
    08:00 +20°C° 0 mm 2 m/s 750 mmHg 73%
    09:00 +21°C° 0 mm 2 m/s 751 mmHg 66%
    10:00 +24°C° 0 mm 3 m/s 751 mmHg 58%
    11:00 +24°C° 0 mm 3 m/s 751 mmHg 55%
    12:00 +25°C° 0 mm 3 m/s 751 mmHg 53%
    13:00 +26°C° 0 mm 3 m/s 750 mmHg 50%
    14:00 +26°C° 0 mm 3 m/s 750 mmHg 53%
    15:00 +25°C° 0 mm 3 m/s 750 mmHg 57%
    16:00 +24°C° 0 mm 3 m/s 750 mmHg 60%
    17:00 +24°C° 0 mm 2 m/s 750 mmHg 63%
    18:00 +23°C° 0 mm 1 m/s 750 mmHg 65%
    19:00 +22°C° 0 mm 1 m/s 749 mmHg 68%
    20:00 +19°C° 0 mm 0 m/s 750 mmHg 69%
    21:00 +19°C° 0 mm 0 m/s 750 mmHg 70%
    22:00 +18°C° 0 mm 0 m/s 750 mmHg 71%
    23:00 +18°C° 0 mm 0 m/s 750 mmHg 72%

    23 Juillet, Mardi

    Heure Température Précipitation Vent Pression Humidité
    00:00 +17°C° 0 mm 0 m/s 750 mmHg 73%
    01:00 +19°C° 0 mm 1 m/s 750 mmHg 73%
    02:00 +19°C° 0 mm 1 m/s 750 mmHg 73%
    03:00 +18°C° 0 mm 1 m/s 750 mmHg 74%
    04:00 +18°C° 0 mm 1 m/s 750 mmHg 74%
    05:00 +20°C° 0 mm 1 m/s 750 mmHg 71%
    06:00 +21°C° 0 mm 1 m/s 750 mmHg 68%
    07:00 +23°C° 0 mm 1 m/s 750 mmHg 64%
    08:00 +24°C° 0 mm 1 m/s 750 mmHg 60%
    09:00 +26°C° 0 mm 1 m/s 750 mmHg 56%
    10:00 +27°C° 0 mm 2 m/s 750 mmHg 51%
    11:00 +28°C° 0 mm 2 m/s 749 mmHg 48%
    12:00 +29°C° 0 mm 2 m/s 749 mmHg 46%
    13:00 +30°C° 0 mm 2 m/s 749 mmHg 43%
    14:00 +30°C° 0 mm 2 m/s 749 mmHg 43%
    15:00 +30°C° 0 mm 2 m/s 748 mmHg 42%
    16:00 +31°C° 0 mm 2 m/s 748 mmHg 42%
    17:00 +29°C° 0 mm 2 m/s 748 mmHg 48%
    18:00 +28°C° 0 mm 1 m/s 748 mmHg 54%
    19:00 +27°C° 0 mm 1 m/s 747 mmHg 59%
    20:00 +25°C° 0 mm 1 m/s 748 mmHg 63%
    21:00 +22°C° 0 mm 0 m/s 748 mmHg 67%
    22:00 +20°C° 0 mm 0 m/s 748 mmHg 71%
    23:00 +19°C° 0 mm 0 m/s 748 mmHg 72%

    24 Juillet, Mercredi

    Heure Température Précipitation Vent Pression Humidité
    00:00 +19°C° 0 mm 0 m/s 748 mmHg 74%
    01:00 +21°C° 0 mm 1 m/s 748 mmHg 76%
    02:00 +20°C° 0 mm 1 m/s 748 mmHg 77%
    03:00 +20°C° 0 mm 1 m/s 748 mmHg 78%
    04:00 +20°C° 0 mm 1 m/s 747 mmHg 79%
    05:00 +21°C° 0 mm 1 m/s 748 mmHg 74%
    06:00 +23°C° 0 mm 1 m/s 748 mmHg 69%
    07:00 +25°C° 0 mm 1 m/s 748 mmHg 64%
    08:00 +26°C° 0 mm 1 m/s 748 mmHg 59%
    09:00 +28°C° 0 mm 1 m/s 748 mmHg 53%
    10:00 +30°C° 0 mm 1 m/s 748 mmHg 48%
    11:00 +30°C° 0 mm 2 m/s 748 mmHg 45%
    12:00 +31°C° 0 mm 2 m/s 748 mmHg 42%
    13:00 +32°C° 0 mm 2 m/s 748 mmHg 39%
    14:00 +32°C° 0 mm 2 m/s 747 mmHg 39%
    15:00 +32°C° 0 mm 2 m/s 747 mmHg 39%
    16:00 +32°C° 0 mm 2 m/s 747 mmHg 39%
    17:00 +30°C° 0 mm 2 m/s 747 mmHg 46%
    18:00 +29°C° 0 mm 2 m/s 746 mmHg 53%
    19:00 +27°C° 0 mm 2 m/s 746 mmHg 60%
    20:00 +26°C° 0 mm 2 m/s 746 mmHg 59%
    21:00 +24°C° 0 mm 2 m/s 747 mmHg 59%
    22:00 +23°C° 0 mm 1 m/s 747 mmHg 59%
    23:00 +23°C° 0 mm 1 m/s 747 mmHg 61%

    25 Juillet, Jeudi

    Heure Température Précipitation Vent Pression Humidité
    00:00 +22°C° 0 mm 1 m/s 747 mmHg 62%
    01:00 +21°C° 0 mm 2 m/s 747 mmHg 64%
    02:00 +22°C° 0 mm 1 m/s 747 mmHg 66%
    03:00 +21°C° 0 mm 1 m/s 747 mmHg 67%
    04:00 +21°C° 0 mm 1 m/s 747 mmHg 69%
    05:00 +22°C° 0 mm 1 m/s 747 mmHg 67%
    06:00 +23°C° 0 mm 1 m/s 747 mmHg 65%
    07:00 +25°C° 0 mm 1 m/s 747 mmHg 63%
    08:00 +26°C° 0 mm 2 m/s 747 mmHg 57%
    09:00 +28°C° 0 mm 2 m/s 747 mmHg 52%
    10:00 +30°C° 0 mm 2 m/s 747 mmHg 47%
    11:00 +31°C° 0 mm 3 m/s 747 mmHg 44%
    12:00 +33°C° 0 mm 3 m/s 747 mmHg 41%
    13:00 +34°C° 0 mm 3 m/s 747 mmHg 38%
    14:00 +33°C° 0 mm 3 m/s 746 mmHg 40%
    15:00 +33°C° 0 mm 4 m/s 746 mmHg 43%
    16:00 +33°C° 0 mm 4 m/s 746 mmHg 45%
    17:00 +32°C° 0 mm 4 m/s 746 mmHg 51%
    18:00 +29°C° 0 mm 3 m/s 745 mmHg 57%
    19:00 +28°C° 0 mm 3 m/s 745 mmHg 63%
    20:00 +27°C° 0 mm 3 m/s 745 mmHg 65%
    21:00 +25°C° 0 mm 2 m/s 745 mmHg 67%
    22:00 +24°C° 0 mm 2 m/s 745 mmHg 69%
    23:00 +24°C° 0 mm 2 m/s 745 mmHg 70%
    Voir plus